Regional Weather Roundup
Issued by NWS

Home | Current Version | Previous Version | Text Only | Print | Product List | Glossary On
Versions: 1 2 3 4 5 6 7 8 9 10 11 12 13 14 15 16 17 18 19 20 21 22 23 24 25 26 27 28 29 30 31 32 33 34 35 36 37 38 39 40 41 42 43 44 45 46 47 48 49 50
000
ASUS44 KMEG 240810
RWRTN
TENNESSEE HOURLY STATE WEATHER ROUNDUP
NATIONAL WEATHER SERVICE MEMPHIS TN
300 AM CDT SUN JUL 24 2016

TNZ002-004-019-021-049-052-054-088>092-240900-
WEST TENNESSEE

CITY           SKY/WX    TMP DP  RH WIND       PRES   REMARKS
MEMPHIS INTL   CLOUDY    80  73  79 CALM      29.94F
NWS MEMPHIS      N/A     76 N/A N/A MISG        N/A
JACKSON        MOCLDY    76  75  97 CALM      29.96S
DYERSBURG      PTCLDY    75  73  94 MISG      29.95
UNION CITY     CLEAR     75  75 100 CALM      29.95R
PARIS          CLEAR     72  72 100 CALM      29.98R
LEXINGTON      CLEAR     75  75 100 CALM      29.97S
$$

TNZ008-025-027-028-033-062-065-066-240900-
NORTH MIDDLE TENNESSEE

CITY           SKY/WX    TMP DP  RH WIND       PRES   REMARKS
NASHVILLE      PTCLDY    75  69  81 CALM      29.99F
CLARKSVILLE    CLEAR     75  73  93 E5        29.98S
SMYRNA         PTCLDY    73  71  93 CALM      30.00F
COOKEVILLE     CLEAR     70  70 100 CALM      30.02S
CROSSVILLE     CLEAR     69  68  96 CALM      30.08S
$$

TNZ061-075-076-078-094-096-097-240900-
SOUTH MIDDLE TENNESSEE

CITY           SKY/WX    TMP DP  RH WIND       PRES   REMARKS
FAYETTEVILLE   CLEAR     73  72  94 SE3       30.01F
TULLAHOMA      CLEAR     72  72 100 SE3       30.03S
WINCHESTER     CLEAR     72  72 100 SE6       30.02F
MCMINNVILLE    CLEAR     72  72 100 CALM      30.03R
COLUMBIA       CLEAR    N/A N/A N/A CALM      29.98S
SHELBYVILLE    CLEAR     73  73 100 CALM      30.01F
$$

TNZ017-018-042-046-047-240900-
NORTHEAST TENNESSEE

CITY           SKY/WX    TMP DP  RH WIND       PRES   REMARKS
TRI CITIES     CLEAR     69  68  96 CALM      30.07S
ELIZABETHTON   CLEAR     68  66  94 CALM      30.08S
$$

TNZ012-013-036-069-073-074-240900-
CENTRAL EAST TENNESSEE

CITY           SKY/WX    TMP DP  RH WIND       PRES   REMARKS
KNOXVILLE      PTCLDY    73  69  87 CALM      30.03S
OAK RIDGE      CLOUDY    74  71  91 CALM      30.05S
GATLINBURG     CLEAR     70  66  88 CALM      30.03S
MORRISTOWN     PTCLDY    72  70  94 CALM      30.05S
$$

TNZ083-085-099-240900-
SOUTHEAST TENNESSEE

CITY           SKY/WX    TMP DP  RH WIND       PRES   REMARKS
CHATTANOOGA    CLEAR     75  71  87 CALM      30.02F
$$

SKY/WX REPORTED AS FAIR MEANS FEW OR NO CLOUDS BELOW
12 THOUSAND FEET.





USA.gov is the U.S. government's official web portal to all federal, state and local government web resources and services.